User: anonymous   Login
Location: Newark
(50.8311°N, 16.5142°E)
Time: 20:24:34
(UTC+00:00)
Language:

Hubble Space Telescope - Orbit

View from above orbital plane
View from above orbital plane
View from above satellite
View from above satellite

Ground track
Ground track

The orbit data is extracted from the following two-line orbital elements,

1 20580U 90037B   19323.95085767 +.00000453 +00000-0 +16602-4 0  9990
2 20580 028.4697 271.8558 0002584 350.2982 060.6988 15.09301057424139
Epoch (UTC): 19 November 2019 22:49:14
Eccentricity: 0.0002584
inclination: 28.4697°
perigee height: 536 km
apogee height: 540 km
right ascension of ascending node: 271.8558°
argument of perigee: 350.2982°
revolutions per day: 15.09301057
mean anomaly at epoch: 60.6988°
orbit number at epoch: 42413

The dashed part of the orbit path shows where the satellite is in the earth's shadow,  

DLR